Location: Lake Arresoe
(56.0000°N, 12.5000°E)
Time: 11:28:58
(UTC+02:00)

Resurs 1-4 Rocket - Pass Details

Date: 15 August 2020
Orbit: 799 x 815 km, 98.6° (Epoch: 23 September)

Event Time Altitude Azimuth Distance (km) Brightness Sun altitude
Rises 01:50:29 0° 22° (NNE) 3,333 6.8 -19.6°
Reaches altitude 10° 01:53:14 10° 35° (NE) 2,394 5.5 -19.6°
Maximum altitude 01:57:38 26° 91° (E) 1,538 3.6 -19.5°
Enters shadow 02:00:31 17° 135° (SE) 1,952 3.8 -19.4°
